Overview Statistics Trail Chart Weather Telemetry Raw packets
 

This is the latest recevied weather packets stored in our database for station/object N2ZVN. If no packets are shown the sender has not sent any weather packets the latest 10 day(s).

<< 97 98 99 100 101 102 103 >>
Time Temp. Humidity Pressure Rain* Wind** Luminosity Snow
1787981158 12.78° C 92% 1022.7 hPa 0 mm - 0 W/m² -
1787980856 13.33° C 93% 1022.7 hPa 0 mm - 0 W/m² -
1787980551 13.33° C 92% 1022.9 hPa 0 mm - 0 W/m² -
1787980247 13.33° C 91% 1022.8 hPa 0 mm - 0 W/m² -
1787979943 13.33° C 90% 1022.7 hPa 0 mm - 0 W/m² -
1787979642 13.33° C 91% 1022.9 hPa 0 mm - 0 W/m² -
1787979341 13.33° C 92% 1022.9 hPa 0 mm - 0 W/m² -
1787979041 13.33° C 92% 1022.7 hPa 0 mm - 0 W/m² -
1787978741 13.33° C 92% 1022.7 hPa 0 mm - 0 W/m² -
1787978436 13.89° C 93% 1022.7 hPa 0 mm - 0 W/m² -
1787978132 13.89° C 91% 1022.6 hPa 0 mm - 0 W/m² -
1787977832 13.89° C 91% 1022.7 hPa 0 mm - 0 W/m² -
1787977532 13.89° C 89% 1022.5 hPa 0 mm - 0 W/m² -
1787977232 13.89° C 90% 1022.5 hPa 0 mm - 0 W/m² -
1787976928 13.89° C 90% 1022.7 hPa 0 mm - 0 W/m² -
1787976627 14.44° C 87% 1022.6 hPa 0 mm - 0 W/m² -
1787976323 14.44° C 88% 1022.7 hPa 0 mm - 0 W/m² -
1787976023 14.44° C 87% 1022.6 hPa 0 mm - 0 W/m² -
1787975721 14.44° C 87% 1022.6 hPa 0 mm - 0 W/m² -
1787975420 14.44° C 90% 1022.7 hPa 0 mm - 0 W/m² -
1787975120 14.44° C 89% 1022.5 hPa 0 mm - 0 W/m² -
1787974819 14.44° C 89% 1022.6 hPa 0 mm - 0 W/m² -
1787974518 14.44° C 90% 1022.7 hPa 0 mm - 0 W/m² -
1787974214 14.44° C 90% 1022.5 hPa 0 mm - 0 W/m² -
1787973907 13.89° C 91% 1022.8 hPa 0 mm - 0 W/m² -

* Rain latest hour (hover to see other rain measurements)
** Current wind speed in m/s (hover to see current wind gust speed)